Regional Weather Roundup
Issued by NWS

Home | Current Version | Previous Version | Graphics & Text | Print | Product List | Glossary On
Versions: 1 2 3 4 5 6 7 8 9 10 11 12 13 14 15 16 17 18 19 20 21 22 23 24 25 26 27 28 29 30 31 32 33 34 35 36 37 38 39 40 41 42 43 44 45 46 47 48 49 50
000
ASUS45 KTFX 241704
RWRMT
MONTANA HOURLY WEATHER ROUNDUP
NATIONAL WEATHER SERVICE GREAT FALLS MT
1104 AM MDT FRI OCT 24 2014

NOTE: "FAIR" INDICATES FEW OR NO CLOUDS BELOW 12000 FEET WITH NO
SIGNIFICANT WEATHER AND/OR OBSTRUCTIONS TO VISIBILITY.

* THESE STATIONS ARE NOT UNDER NWS QUALITY CONTROL. THEY DO NOT
   REPORT WEATHER SUCH AS PRECIPITATION OR FOG.

MTZ001>007-043-241800-
WEST OF THE DIVIDE
CITY           SKY/WX    TMP DP  RH WIND       PRES   REMARKS
KALISPELL      CLOUDY    50  37  61 S6        30.09S
MISSOULA       CLOUDY    46  43  89 CALM      30.15R
BUTTE          LGT RAIN  43  37  79 NW5       30.15R
MULLAN PASS    CLOUDY    36  32  85 VRB3      30.10R
* ESSEX        N/A       43  40  89 S2         N/A
* LINCOLN      N/A       43  37  79 W3         N/A
* POLSON       N/A       46  39  77 S1         N/A
* RONAN APT    CLOUDY    48  39  71 N/A        N/A
* SEELEY LAKE  N/A       42  38  86 N/A        N/A
* THOMP F APT  CLOUDY    43  38  83 E7G12      N/A
$$

MTZ008-052>055-241800-
SOUTHWEST MONTANA
CITY           SKY/WX    TMP DP  RH WIND       PRES   REMARKS
BOZEMAN        CLOUDY    52  39  61 W7        30.11R
DILLON         CLOUDY    48  41  77 N6        30.11R
W YELLOWSTONE  CLOUDY    45  36  71 S5        30.20S
* THREE FORKS  CLOUDY    50  50 100 N/A        N/A
* BOULDER HILL N/A       46  32  58 SW6        N/A
* MONIDA PASS  N/A       42  39  89 SE17G24    N/A
* RAYNOLDS PAS N/A       44  28  53 S14        N/A
* WHITEHALL    N/A       51  38  61 W4G13      N/A
* WISE RIVER   N/A       42  36  79 W4         N/A
$$

MTZ009>010-012-014-046-048-049-054-241800-
EAST SLOPES AND CENTRAL MONTANA
CITY           SKY/WX    TMP DP  RH WIND       PRES   REMARKS
CUT BANK       PTCLDY    50  30  46 W28G33    30.01R
GREAT FALLS    PTSUNNY   54  32  43 SW17      30.05R
HELENA         CLOUDY    52  37  57 W10       30.11R
MALMSTROM AFB  PTSUNNY   54  34  47 SW18G25   30.07R
* CONRAD       PTSUNNY   48  32  54 S11G20     N/A
* DEARBORN     N/A       53  32  45 S8G15      N/A
* EAST GLACIER N/A       42  28  58 W26G35     N/A
* MONARCH      N/A       46  25  44 SW18G27    N/A
* PENDROY      N/A       47  28  48 E6G13      N/A
* ROGERS PASS  N/A       41  32  70 SE13G24    N/A
* SAINT MARY   N/A       43  34  71 S7G19      N/A
* SWEET GRASS  N/A       50  26  39 W26G40     N/A
$$

MTZ011-013-016-021-035-040-045-047-050-051-241800-
NORTH CENTRAL MONTANA
CITY           SKY/WX    TMP DP  RH WIND       PRES   REMARKS
HAVRE          PTSUNNY   54  30  40 SW17      30.00R
LEWISTOWN      CLOUDY    54  34  47 NW12      30.07R
* CHESTER      N/A       50  28  43 W11G22     N/A
* DENTON       N/A       55  37  51 SW13       N/A
* GEYSER       N/A       53  32  45 W17G27     N/A
* JUDITH GAP   N/A       49  40  71 NW12       N/A
* LOMA         N/A       54  34  47 SW11G20    N/A
$$

MTZ017>020-022>027-061-062-241800-
NORTHEAST MONTANA
CITY           SKY/WX    TMP DP  RH WIND       PRES   REMARKS
GLASGOW        CLOUDY    55  30  39 W20G31    29.96R
GLENDIVE       PTSUNNY   57  36  46 NW12      30.01R
JORDAN         CLOUDY    57  34  42 NW22      30.01R
SIDNEY         PTCLDY    61  36  39 W22G30    29.97R
WOLF POINT     CLOUDY    57  36  46 W15G28    29.96R
* BEAVER HILL  N/A       56  37  49 W11        N/A
* CIRCLE       N/A       58  34  41 NW22       N/A
* LINDSAY DVD  N/A       58  30  35 W26G36     N/A
* NAVAJO       N/A       55  30  39 NW27G43    N/A
$$

MTZ028>042-056>058-241800-
SOUTHCENTRAL AND SOUTHEAST MONTANA
CITY           SKY/WX    TMP DP  RH WIND       PRES   REMARKS
BAKER          PTSUNNY   61  34  36 NW16      30.03R
BILLINGS       CLOUDY    57  37  47 CALM      30.06R
LIVINGSTON     LGT RAIN  57  41  55 W13       30.06R
MILES CITY     CLOUDY    57  36  46 SW5       30.04R
* LAUREL APT   CLOUDY    54  34  47 N/A        N/A
* ROUNDUP APT  CLOUDY    52  37  57 N/A        N/A
* ALZADA       N/A       62  35  37 NW9        N/A
* HYSHAM       N/A       56  32  40 W1         N/A
* LAME DEER    N/A       53  33  47 NE9G14     N/A
* REED POINT   N/A       53  38  57 NE3        N/A
* ROSCOE HILL  N/A       54  25  33 E11        N/A
$$

REGIONAL REPORTS...DAKOTAS
CITY           SKY/WX    TMP DP  RH WIND       PRES   REMARKS
WILLISTON      PTSUNNY   61  36  39 W23G32    29.91S
DICKINSON      PTSUNNY   63  39  41 NW16      29.96R
BEACH          N/A       59  36  42 NW18      30.00R
CROSBY         SUNNY     57  32  39 W26G35    29.85F
TIOGA          SUNNY     57  32  39 W23G35    29.91S
BISMARCK       PTCLDY    64  39  40 NW7       29.91R
GRAND FORKS    PTCLDY    68  41  38 W10       29.75F
FARGO          PTCLDY    61  41  48 S9        29.81F
BUFFALO SD     PTCLDY    63  37  38 NW23      29.95R
RAPID CITY     PTSUNNY   68  34  28 N20       30.01R
$$

REGIONAL REPORTS...WYOMING/IDAHO/WASHINGTON
CITY           SKY/WX    TMP DP  RH WIND       PRES   REMARKS
GILLETTE       PTSUNNY   63  28  27 N6        30.09R
SHERIDAN       PTSUNNY   61  30  31 NE3       30.07R
CODY           CLOUDY    66  30  26 W8        30.06F
YELLOWSTONE LA PTSUNNY   46  30  54 VRB3      30.25S
SALMON         CLOUDY    48  45  89 N3        30.13R
MULLAN PASS    CLOUDY    36  32  85 VRB3      30.10S
SAND POINT     CLOUDY    46  43  89 CALM      30.12R
SPOKANE        CLOUDY    45  39  80 S8        30.09S

$$




USA.gov is the U.S. government's official web portal to all federal, state and local government web resources and services.